Time,TemperatureF,DewpointF,PressureIn,WindDirection,WindDirectionDegrees,WindSpeedMPH,WindSpeedGustMPH,Humidity,HourlyPrecipIn,Conditions,Clouds,dailyrainin,SoftwareType,DateUTC
2013-03-21 00:09:00,22.3,18.0,29.69,SSW,213,0.0,-999.0,84,-99.99,,,0.00,weatherlink.com 1.10,2013-03-21 04:09:00,
2013-03-21 00:24:00,21.8,18.0,29.70,SW,214,0.0,-999.0,85,-99.99,,,0.00,weatherlink.com 1.10,2013-03-21 04:24:00,
2013-03-21 00:39:00,21.6,18.0,29.70,SW,214,0.0,-999.0,86,-99.99,,,0.00,weatherlink.com 1.10,2013-03-21 04:39:00,
2013-03-21 00:54:00,21.5,18.0,29.70,South,188,0.0,-999.0,86,-99.99,,,0.00,weatherlink.com 1.10,2013-03-21 04:54:00,
2013-03-21 01:09:00,21.8,18.0,29.70,South,179,0.0,-999.0,86,-99.99,,,0.00,weatherlink.com 1.10,2013-03-21 05:09:00,
2013-03-21 01:24:00,21.9,18.0,29.70,WNW,292,0.0,-999.0,86,-99.99,,,0.00,weatherlink.com 1.10,2013-03-21 05:24:00,
2013-03-21 01:39:00,22.2,18.0,29.70,SSW,209,1.0,-999.0,84,-99.99,,,0.00,weatherlink.com 1.10,2013-03-21 05:39:00,
2013-03-21 01:54:00,22.2,18.0,29.71,SSW,200,0.0,-999.0,83,-99.99,,,0.00,weatherlink.com 1.10,2013-03-21 05:54:00,
2013-03-21 02:09:00,21.8,18.0,29.71,SW,223,0.0,-999.0,84,-99.99,,,0.00,weatherlink.com 1.10,2013-03-21 06:09:00,
2013-03-21 02:24:00,21.2,18.0,29.71,SW,223,0.0,-999.0,86,-99.99,,,0.00,weatherlink.com 1.10,2013-03-21 06:24:00,
2013-03-21 02:39:00,20.6,17.0,29.70,SSW,195,0.0,-999.0,87,-99.99,,,0.00,weatherlink.com 1.10,2013-03-21 06:39:00,
2013-03-21 02:54:00,20.7,17.0,29.70,WSW,244,0.0,-999.0,86,-99.99,,,0.00,weatherlink.com 1.10,2013-03-21 06:54:00,
2013-03-21 03:09:00,20.4,17.0,29.70,SW,221,0.0,-999.0,86,-99.99,,,0.00,weatherlink.com 1.10,2013-03-21 07:09:00,
2013-03-21 03:24:00,20.1,17.0,29.70,South,172,0.0,-999.0,87,-99.99,,,0.00,weatherlink.com 1.10,2013-03-21 07:24:00,
2013-03-21 03:39:00,19.9,17.0,29.70,SE,132,0.0,-999.0,87,-99.99,,,0.00,weatherlink.com 1.10,2013-03-21 07:39:00,
2013-03-21 03:54:00,19.6,16.0,29.69,SE,132,1.0,-999.0,87,-99.99,,,0.00,weatherlink.com 1.10,2013-03-21 07:54:00,
2013-03-21 04:09:00,19.4,16.0,29.69,SE,132,0.0,-999.0,87,-99.99,,,0.00,weatherlink.com 1.10,2013-03-21 08:09:00,
2013-03-21 04:24:00,19.0,16.0,29.69,SE,132,0.0,-999.0,88,-99.99,,,0.00,weatherlink.com 1.10,2013-03-21 08:24:00,
2013-03-21 04:39:00,18.8,16.0,29.69,SE,132,0.0,-999.0,88,-99.99,,,0.00,weatherlink.com 1.10,2013-03-21 08:39:00,
2013-03-21 04:54:00,18.7,16.0,29.70,SE,132,0.0,-999.0,88,-99.99,,,0.00,weatherlink.com 1.10,2013-03-21 08:54:00,
2013-03-21 05:09:00,18.6,16.0,29.69,SE,132,0.0,-999.0,88,-99.99,,,0.00,weatherlink.com 1.10,2013-03-21 09:09:00,
2013-03-21 05:24:00,18.3,15.0,29.69,SE,132,0.0,-999.0,88,-99.99,,,0.00,weatherlink.com 1.10,2013-03-21 09:24:00,
2013-03-21 05:39:00,17.9,15.0,29.70,SE,132,0.0,-999.0,88,-99.99,,,0.00,weatherlink.com 1.10,2013-03-21 09:39:00,
2013-03-21 05:54:00,17.4,15.0,29.70,SE,132,0.0,-999.0,88,-99.99,,,0.00,weatherlink.com 1.10,2013-03-21 09:54:00,
2013-03-21 06:09:00,17.1,15.0,29.70,SE,132,0.0,-999.0,90,-99.99,,,0.00,weatherlink.com 1.10,2013-03-21 10:09:00,
2013-03-21 06:24:00,17.1,15.0,29.70,SE,132,0.0,-999.0,90,-99.99,,,0.00,weatherlink.com 1.10,2013-03-21 10:24:00,
2013-03-21 06:39:00,16.8,14.0,29.70,SE,132,0.0,-999.0,89,-99.99,,,0.00,weatherlink.com 1.10,2013-03-21 10:39:00,
2013-03-21 06:54:00,16.9,15.0,29.70,SW,225,0.0,-999.0,91,-99.99,,,0.00,weatherlink.com 1.10,2013-03-21 10:54:00,
2013-03-21 07:09:00,17.2,15.0,29.70,SE,145,0.0,-999.0,91,-99.99,,,0.00,weatherlink.com 1.10,2013-03-21 11:09:00,
2013-03-21 07:24:00,17.6,16.0,29.71,SSE,154,0.0,-999.0,91,-99.99,,,0.00,weatherlink.com 1.10,2013-03-21 11:24:00,
2013-03-21 07:39:00,18.5,16.0,29.71,SSE,154,0.0,-999.0,90,-99.99,,,0.00,weatherlink.com 1.10,2013-03-21 11:39:00,
2013-03-21 07:54:00,19.1,16.0,29.71,South,187,0.0,-999.0,88,-99.99,,,0.00,weatherlink.com 1.10,2013-03-21 11:54:00,
2013-03-21 08:09:00,19.6,17.0,29.71,SSE,161,1.0,-999.0,88,-99.99,,,0.00,weatherlink.com 1.10,2013-03-21 12:09:00,
2013-03-21 08:24:00,20.1,17.0,29.71,SSW,195,0.0,-999.0,87,-99.99,,,0.00,weatherlink.com 1.10,2013-03-21 12:24:00,
2013-03-21 08:39:00,20.9,17.0,29.72,SSW,197,1.0,-999.0,85,-99.99,,,0.00,weatherlink.com 1.10,2013-03-21 12:39:00,
2013-03-21 08:54:00,21.5,17.0,29.72,SSW,192,0.0,-999.0,84,-99.99,,,0.00,weatherlink.com 1.10,2013-03-21 12:54:00,
2013-03-21 09:09:00,21.8,18.0,29.71,WSW,240,0.0,-999.0,84,-99.99,,,0.00,weatherlink.com 1.10,2013-03-21 13:09:00,
2013-03-21 09:24:00,22.5,18.0,29.72,SSE,147,0.0,-999.0,83,-99.99,,,0.00,weatherlink.com 1.10,2013-03-21 13:24:00,
2013-03-21 09:39:00,23.0,19.0,29.72,West,270,1.0,-999.0,83,-99.99,,,0.00,weatherlink.com 1.10,2013-03-21 13:39:00,
2013-03-21 09:54:00,23.8,19.0,29.72,SSW,204,1.0,-999.0,81,-99.99,,,0.00,weatherlink.com 1.10,2013-03-21 13:54:00,
2013-03-21 10:09:00,24.7,19.0,29.72,South,182,0.0,-999.0,78,-99.99,,,0.00,weatherlink.com 1.10,2013-03-21 14:09:00,
2013-03-21 10:24:00,25.1,19.0,29.72,West,263,1.0,-999.0,77,-99.99,,,0.00,weatherlink.com 1.10,2013-03-21 14:24:00,
2013-03-21 10:40:00,26.2,19.0,29.72,SW,223,1.0,-999.0,75,-99.99,,,0.00,weatherlink.com 1.10,2013-03-21 14:40:00,
2013-03-21 10:55:00,27.1,20.0,29.71,WSW,258,0.0,-999.0,73,-99.99,,,0.00,weatherlink.com 1.10,2013-03-21 14:55:00,
2013-03-21 11:10:00,27.9,19.0,29.71,SW,216,0.0,-999.0,68,-99.99,,,0.00,weatherlink.com 1.10,2013-03-21 15:10:00,
2013-03-21 11:25:00,27.5,19.0,29.70,SSW,207,0.0,-999.0,69,-99.99,,,0.00,weatherlink.com 1.10,2013-03-21 15:25:00,
2013-03-21 11:40:00,28.2,20.0,29.70,WSW,256,0.0,-999.0,70,-99.99,,,0.00,weatherlink.com 1.10,2013-03-21 15:40:00,
2013-03-21 11:55:00,28.7,19.0,29.69,West,278,1.0,-999.0,66,-99.99,,,0.00,weatherlink.com 1.10,2013-03-21 15:55:00,
2013-03-21 12:10:00,28.5,18.0,29.68,WNW,289,1.0,-999.0,66,-99.99,,,0.00,weatherlink.com 1.10,2013-03-21 16:10:00,
2013-03-21 12:25:00,28.8,17.0,29.68,NNW,336,0.0,-999.0,62,-99.99,,,0.00,weatherlink.com 1.10,2013-03-21 16:25:00,
2013-03-21 12:40:00,30.7,19.0,29.67,West,261,0.0,-999.0,62,-99.99,,,0.00,weatherlink.com 1.10,2013-03-21 16:40:00,
2013-03-21 12:55:00,31.0,18.0,29.67,South,176,1.0,-999.0,59,-99.99,,,0.00,weatherlink.com 1.10,2013-03-21 16:55:00,
2013-03-21 13:10:00,30.8,19.0,29.66,SW,219,2.0,-999.0,62,-99.99,,,0.00,weatherlink.com 1.10,2013-03-21 17:10:00,
2013-03-21 13:25:00,30.8,17.0,29.66,West,265,1.0,-999.0,56,-99.99,,,0.00,weatherlink.com 1.10,2013-03-21 17:25:00,
2013-03-21 13:40:00,31.2,18.0,29.65,NNW,342,2.0,-999.0,58,-99.99,,,0.00,weatherlink.com 1.10,2013-03-21 17:40:00,
2013-03-21 13:55:00,31.7,16.0,29.64,NNW,348,3.0,-999.0,52,-99.99,,,0.00,weatherlink.com 1.10,2013-03-21 17:55:00,
2013-03-21 14:10:00,32.7,17.0,29.64,WSW,237,2.0,-999.0,52,-99.99,,,0.00,weatherlink.com 1.10,2013-03-21 18:10:00,
2013-03-21 14:25:00,35.0,18.0,29.63,SW,236,0.0,-999.0,50,-99.99,,,0.00,weatherlink.com 1.10,2013-03-21 18:25:00,
2013-03-21 14:40:00,35.9,17.0,29.63,WSW,240,0.0,-999.0,47,-99.99,,,0.00,weatherlink.com 1.10,2013-03-21 18:40:00,
2013-03-21 14:55:00,34.8,15.0,29.63,SSW,194,1.0,-999.0,45,-99.99,,,0.00,weatherlink.com 1.10,2013-03-21 18:55:00,
2013-03-21 15:10:00,36.3,16.0,29.62,SE,127,0.0,-999.0,43,-99.99,,,0.00,weatherlink.com 1.10,2013-03-21 19:10:00,
2013-03-21 15:25:00,37.0,16.0,29.61,SSW,204,4.0,-999.0,42,-99.99,,,0.02,weatherlink.com 1.10,2013-03-21 19:25:00,
2013-03-21 15:40:00,36.5,16.0,29.61,WSW,242,0.0,-999.0,43,-99.99,,,0.06,weatherlink.com 1.10,2013-03-21 19:40:00,
2013-03-21 15:55:00,35.0,15.0,29.60,SSW,208,0.0,-999.0,44,-99.99,,,0.09,weatherlink.com 1.10,2013-03-21 19:55:00,
2013-03-21 16:10:00,35.4,15.0,29.60,NNW,348,1.0,-999.0,44,-99.99,,,0.11,weatherlink.com 1.10,2013-03-21 20:10:00,
2013-03-21 16:25:00,35.5,15.0,29.59,WSW,255,2.0,-999.0,44,-99.99,,,0.14,weatherlink.com 1.10,2013-03-21 20:25:00,
2013-03-21 16:40:00,34.0,15.0,29.59,SSW,205,1.0,-999.0,45,-99.99,,,0.16,weatherlink.com 1.10,2013-03-21 20:40:00,
2013-03-21 16:55:00,34.4,14.0,29.59,West,260,0.0,-999.0,44,-99.99,,,0.17,weatherlink.com 1.10,2013-03-21 20:55:00,
2013-03-21 17:10:00,33.2,15.0,29.59,WSW,245,0.0,-999.0,48,-99.99,,,0.18,weatherlink.com 1.10,2013-03-21 21:10:00,
2013-03-21 17:25:00,32.5,15.0,29.59,WSW,245,0.0,-999.0,49,-99.99,,,0.19,weatherlink.com 1.10,2013-03-21 21:25:00,
2013-03-21 17:41:00,32.7,13.0,29.60,WSW,245,0.0,-999.0,44,-99.99,,,0.19,weatherlink.com 1.10,2013-03-21 21:41:00,
2013-03-21 17:56:00,32.4,15.0,29.60,SW,229,0.0,-999.0,49,-99.99,,,0.19,weatherlink.com 1.10,2013-03-21 21:56:00,
2013-03-21 18:11:00,32.1,15.0,29.60,WSW,244,0.0,-999.0,49,-99.99,,,0.20,weatherlink.com 1.10,2013-03-21 22:11:00,
2013-03-21 18:26:00,31.8,17.0,29.61,WSW,244,0.0,-999.0,54,-99.99,,,0.20,weatherlink.com 1.10,2013-03-21 22:26:00,
2013-03-21 18:41:00,31.1,16.0,29.61,WSW,244,0.0,-999.0,54,-99.99,,,0.20,weatherlink.com 1.10,2013-03-21 22:41:00,
2013-03-21 18:56:00,30.5,16.0,29.61,WSW,244,0.0,-999.0,56,-99.99,,,0.20,weatherlink.com 1.10,2013-03-21 22:56:00,
2013-03-21 19:11:00,30.2,17.0,29.62,WSW,244,0.0,-999.0,58,-99.99,,,0.20,weatherlink.com 1.10,2013-03-21 23:11:00,
2013-03-21 19:26:00,29.7,18.0,29.62,WSW,244,0.0,-999.0,63,-99.99,,,0.20,weatherlink.com 1.10,2013-03-21 23:26:00,
2013-03-21 19:41:00,29.5,16.0,29.62,NE,52,0.0,-999.0,57,-99.99,,,0.20,weatherlink.com 1.10,2013-03-21 23:41:00,
2013-03-21 19:56:00,29.3,16.0,29.62,NNE,22,0.0,-999.0,58,-99.99,,,0.20,weatherlink.com 1.10,2013-03-21 23:56:00,
2013-03-21 20:11:00,29.0,16.0,29.62,NNE,25,0.0,-999.0,59,-99.99,,,0.20,weatherlink.com 1.10,2013-03-22 00:11:00,
2013-03-21 20:26:00,28.6,17.0,29.63,NW,318,0.0,-999.0,61,-99.99,,,0.20,weatherlink.com 1.10,2013-03-22 00:26:00,
2013-03-21 20:41:00,28.0,16.0,29.63,NW,318,0.0,-999.0,62,-99.99,,,0.20,weatherlink.com 1.10,2013-03-22 00:41:00,
2013-03-21 21:13:00,26.9,17.0,29.63,NW,318,0.0,-999.0,65,-99.99,,,0.20,weatherlink.com 1.10,2013-03-22 01:13:00,
2013-03-21 21:28:00,26.1,18.0,29.63,NW,318,0.0,-999.0,70,-99.99,,,0.20,weatherlink.com 1.10,2013-03-22 01:28:00,
2013-03-21 21:41:00,25.4,18.0,29.63,NW,318,0.0,-999.0,73,-99.99,,,0.20,weatherlink.com 1.10,2013-03-22 01:41:00,
2013-03-21 21:56:00,25.1,19.0,29.63,NW,318,0.0,-999.0,76,-99.99,,,0.20,weatherlink.com 1.10,2013-03-22 01:56:00,
2013-03-21 22:13:00,24.8,19.0,29.63,NW,318,0.0,-999.0,79,-99.99,,,0.20,weatherlink.com 1.10,2013-03-22 02:13:00,
2013-03-21 22:27:00,24.5,19.0,29.63,NW,318,0.0,-999.0,78,-99.99,,,0.20,weatherlink.com 1.10,2013-03-22 02:27:00,
2013-03-21 22:41:00,24.3,19.0,29.62,NW,318,0.0,-999.0,79,-99.99,,,0.20,weatherlink.com 1.10,2013-03-22 02:41:00,
2013-03-21 22:56:00,24.1,20.0,29.62,NW,318,0.0,-999.0,83,-99.99,,,0.20,weatherlink.com 1.10,2013-03-22 02:56:00,
2013-03-21 23:11:00,24.4,20.0,29.62,NW,318,0.0,-999.0,82,-99.99,,,0.20,weatherlink.com 1.10,2013-03-22 03:11:00,
2013-03-21 23:26:00,24.5,20.0,29.62,NW,318,0.0,-999.0,83,-99.99,,,0.20,weatherlink.com 1.10,2013-03-22 03:26:00,
2013-03-21 23:41:00,24.6,20.0,29.62,NW,318,0.0,-999.0,82,-99.99,,,0.20,weatherlink.com 1.10,2013-03-22 03:41:00,
2013-03-21 23:56:00,24.4,20.0,29.62,NW,318,0.0,-999.0,83,-99.99,,,0.20,weatherlink.com 1.10,2013-03-22 03:56:00,